sat.trackr.live / text

‹ back to catalog

STARLINK-5553

NORAD 56333 · 2023-058S

PAYLOAD ACTIVE UNKNOWN

§ Identity

Operator
Country
US
Launch date
2023-04-27
Launch site
AFWTR
Launch vehicle
Mass (kg)
RCS (m²)

Purposes: comms

External: N2YO · Heavens-Above · Gunter

§ Orbital elements

Epoch: 2026-05-24T23:31:33.345120Z

Period
95.64 min
Inclination
97.4459°
Eccentricity
0.0002130
Mean motion
15.05713539 rev/d
Perigee alt
547.8 km
Apogee alt
550.8 km
Semi-major
6,927.5 km
B*
-8.8946e-4
RAAN
146.0119°
Arg perigee
70.1275°
Mean anomaly
290.0182°
Rev number
16,967

§ Raw data

STARLINK-55531 56333U 23058S   26144.98024705 -.00012891  00000+0 -88946-3 0  99902 56333  97.4459 146.0119 0002130  70.1275 290.0182 15.05713539169670

JSON: /api/v1/satellites/56333 · /tle

For live sub-satellite position, see the globe view (requires WebGL).

§ Visibility from observer

Set your observer location to see the next 7 days of passes ≥ 10°. The values pass through the URL so the page stays shareable.

No JS? Fill the form by hand. The geolocation button needs JavaScript.